Location: Stilling
(56.0622°N, 9.9882°E)
Time: 23:46:57
(UTC+00:00)

Cosmos 1943 - Pass Details

Date: 13 July 2020
Orbit: 835 x 848 km, 71.0° (Epoch: 14 August)

Event Time Altitude Azimuth Distance (km) Brightness Sun altitude
Exits shadow 22:37:46 14° 184° (S) 2,160 4.7 -11.6°
Maximum altitude 22:42:21 49° 114° (ESE) 1,075 3.5 -11.7°
Drops below altitude 10° 22:47:47 10° 41° (NE) 2,469 6.2 -11.9°
Sets 22:50:17 0° 36° (NE) 3,405 7.1 -11.9°
